Flag for Germany Weather past 2 weeks in Cottbus, Brandenburg, Germany

Now
63 °F

Overcast.


Feels Like: 63 °F
Forecast: 50 / 71 °F
Wind: 5 mph from Southwest

Location: Cottbus

Current Time: Aug 20, 2014 at 5:17:34 PM

Latest Report: Aug 20, 2014 at 4:00 PM


Visibility: 34 mi

Pressure: 29.98 "Hg

Humidity: 51%

Dew point: 45 °F

Location of CottbusLocation

Historic Weather in Cottbus — Graph

°F

Cottbus temperature yesterday

Maximum temperature yesterday: 70 °F (at 4:00 PM)
Minimum temperature yesterday: 53 °F (at 5:00 AM)
Average temperature yesterday: 61 °F

Past Weeks' High & Low Weather Summary

 TemperatureHumidityPressure
High85 °F (Aug 9, 2:00 PM)98% (Aug 6, 4:00 AM)30.07 "Hg (Aug 6, 4:00 AM)
Low50 °F (Aug 20, 6:00 AM)38% (Aug 11, 4:00 PM)29.63 "Hg (Aug 14, 12:00 AM)
Average65 °F72%29.87 "Hg
* Reported Aug 5 4:00 PM — Aug 20 4:00 PM, Cottbus, Weather by CustomWeather, © 2014

Note: Actual official high and low records may vary slightly from our data, if they occured in-between our weather recording intervals... More about our weather records

Advertising

Cottbus weather history for previous 24 hours

 ConditionsComfort  
Time TempWeatherWind HumidityBarometerVisibility
4:00 PM
Aug 20
63 °FOvercast.5 mph51%29.98 "Hg34 mi
3:00 PM63 °FOvercast.5 mph52%29.98 "Hg37 mi
2:00 PM64 °FPartly sunny.5 mph51%29.98 "Hg40 mi
1:00 PM62 °FPassing clouds.7 mph55%29.98 "Hg34 mi
12:00 PM60 °FScattered clouds.5 mph56%29.98 "Hg37 mi
11:00 AM60 °FScattered clouds.6 mph58%29.98 "Hg28 mi
10:00 AM58 °FPassing clouds.7 mph62%29.97 "Hg25 mi
9:00 AM56 °FPassing clouds.7 mph67%29.96 "Hg22 mi
8:00 AM54 °FSunny.6 mph73%29.95 "Hg22 mi
7:00 AM50 °FPassing clouds.5 mph85%29.94 "Hg16 mi
6:00 AM50 °FPassing clouds.3 mph86%29.93 "Hg16 mi
5:00 AM52 °FPassing clouds.5 mph86%29.92 "Hg19 mi
4:00 AM52 °FPassing clouds.3 mph88%29.91 "Hg22 mi
3:00 AM53 °FPassing clouds.5 mph87%29.90 "Hg34 mi
2:00 AM53 °FPassing clouds.3 mph89%29.89 "Hg43 mi
1:00 AM54 °FOvercast.3 mph86%29.89 "Hg43 mi
12:00 AM54 °FLow clouds.2 mph87%29.88 "Hg43 mi
11:00 PM
Aug 19
56 °FOvercast.3 mph74%29.89 "Hg43 mi
10:00 PM58 °FPassing clouds.5 mph70%29.86 "Hg43 mi
9:00 PM65 °FOvercast.2 mph54%29.80 "Hg43 mi
8:00 PM67 °FOvercast.2 mph50%29.80 "Hg43 mi
7:00 PM69 °FOvercast.3 mph45%29.79 "Hg43 mi
6:00 PM69 °FOvercast.5 mph43%29.80 "Hg43 mi
5:00 PM69 °FOvercast.3 mph43%29.81 "Hg43 mi
Weather by CustomWeather, © 2014

See weather overviewHow to use our weather pages